Location: New Canada
(47.1017°N, 68.5042°W)
Time: 22:49:42
(UTC+00:00)

RS-44 - Pass Details

Date: 01 April 2023
Orbit: 1175 x 1510 km, 82.5° (Epoch: 02 June)

Event Time Altitude Azimuth Distance (km) Brightness Sun altitude
Rises 05:37:09 0° 350° (N) 4,373 ? -36.8°
Reaches altitude 10° 05:39:53 10° 352° (N) 3,440 ? -36.7°
Maximum altitude 05:48:11 79° 80° (E) 1,467 ? -36.2°
Enters shadow 05:48:12 79° 82° (E) 1,467 ? -36.2°
